Regional Weather Roundup
Issued by NWS

Home | Current Version | Previous Version | Graphics & Text | Print | Product List | Glossary On
Versions: 1 2 3 4 5 6 7 8 9 10 11 12 13 14 15 16 17 18 19 20 21 22 23 24 25 26 27 28 29 30 31 32 33 34 35 36 37 38 39 40 41 42 43 44 45 46 47 48 49 50
000
ASUS43 KMPX 102010
RWRMN
WEATHER ROUNDUP FOR MINNESOTA
NATIONAL WEATHER SERVICE TWIN CITIES/CHANHASSEN MN
200 PM CST SAT DEC 10 2016


NOTE: "FAIR" INDICATES FEW OR NO CLOUDS BELOW 12,000 FEET WITH NO
SIGNIFICANT WEATHER AND/OR OBSTRUCTIONS TO VISIBILITY. N/A MEANS
CURRENT SKY AND/OR WEATHER CONDITIONS ARE NOT AVAILABLE.

MNZ060>063-068>070-102100-
   Twin Cities Metro

CITY           SKY/WX    TMP DP  RH WIND       PRES   REMARKS
TWIN CITIES    CLOUDY    11   1  64 S5        30.37F WCI   3
ST PAUL        PTSUNNY   12   2  64 SE6       30.38F WCI   3
CRYSTAL        PTSUNNY   11  -1  58 VRB3      30.36F
BLAINE         CLOUDY    12   1  62 CALM      30.35F
LAKEVILLE      LGT SNOW   9   3  78 CALM      30.35F
EDEN PRAIRIE   LGT SNOW  11   3  70 S3        30.36S
SOUTH ST PAUL  MOSUNNY   13   4  67 CALM      30.37F
LAKE ELMO      FAIR      14   3  62 SW3       30.37F
$$
MNZ001>005-007-008-013>017-022>024-027-028-102100-
   Northwest Minnesota

CITY           SKY/WX    TMP DP  RH WIND       PRES   REMARKS
BEMIDJI        MOSUNNY   -1  -8  71 SE6       30.30F WCI -12
HALLOCK        SUNNY     -4  -8  84 S5        30.39S WCI -15
ROSEAU         SUNNY     -2  -8  78 CALM      30.36S
WARROAD        SUNNY      0  -6  78 CALM      30.35F
THIEF RVR FALL SUNNY      0  -9  65 SW3       30.36F
CROOKSTON      CLOUDY    -2  -8  78 CALM      30.38F
FOSSTON        SUNNY      0  -8  71 N3        30.32F
DETROIT LAKES  CLOUDY     1  -2  85 CALM      30.29F
MOORHEAD       CLOUDY     0  -8  71 E5        30.35F WCI -10
PARK RAPIDS    CLOUDY     1  -7  68 S3        30.29F
$$
MNZ006-009>011-018-025>026-102100-
   North Central Minnesota

CITY           SKY/WX    TMP DP  RH WIND       PRES   REMARKS
BAUDETTE       PTSUNNY    1  -4  79 SW3       30.32F
FLAG ISLAND    SUNNY      0  -4  85 NW3       30.33F
INTL FALLS     CLOUDY     3  -3  76 SW5       30.32F HAZE    WCI  -6
WASKISH        SUNNY      3  -4  72 CALM      30.32F
BIG FORK       SUNNY      3  -8  60 CALM      30.31F
LONGVILLE      CLOUDY     3  -6  66 CALM      30.31F
GRAND RAPIDS   CLOUDY     4  -6  63 CALM      30.33F
CRANE LAKE     CLOUDY     3  -2  78 CALM      30.35F
ORR            SUNNY      1  -8  66 CALM      30.29F
COOK           SUNNY      3  -8  60 CALM      30.31F
$$
MNZ012-019>021-037-102100-
   Northeast Minnesota

CITY           SKY/WX    TMP DP  RH WIND       PRES   REMARKS
DULUTH         PTSUNNY    5  -4  66 SW6       30.30F WCI  -6
ELY            CLOUDY     3  -6  66 W8        30.30S WCI -10
HIBBING        MOSUNNY    2  -7  66 CALM      30.30F
EVELETH        SUNNY      3  -7  63 CALM      30.32F
DULUTH HARBOR  MOSUNNY    9  -2  61 CALM      30.39F
TWO HARBORS    SUNNY     10  -2  56 W6        30.31F WCI   1
SILVER BAY     SUNNY     10  -4  52 CALM      30.31S
GRAND MARAIS     N/A     13  -1  54 VRB3      30.36F
G MARAIS ARPRT PTSUNNY    3  -8  60 CALM      30.24S
$$
MNZ029>031-032-039>041-046>048-054>057-064-102100-
   West Central Minnesota

CITY           SKY/WX    TMP DP  RH WIND       PRES   REMARKS
FERGUS FALLS   CLOUDY     0  -6  78 SE7       30.37F WCI -13
WHEATON        LGT SNOW   3  -2  78 E6        30.32F WCI  -8
MORRIS         LGT SNOW   3  -2  78 SE5       30.29F WCI  -6
ALEXANDRIA     CLOUDY     3  -3  76 S6        30.29F WCI  -8
ELBOW LAKE     CLOUDY    -1  -6  81 SE5       30.31F WCI -11
WADENA         CLOUDY     0  -6  78 E3        30.29F
GLENWOOD       CLOUDY     3   0  85 SE6       30.29F WCI  -8
APPLETON       LGT SNOW   5   0  78 E8        30.30F WCI  -8
BENSON         LGT SNOW   5   0  78 S5        30.30F WCI  -4
ORTONVILLE     LGT SNOW   1  -4  78 CALM      30.28F VSB 1
MADISON        LGT SNOW   7   1  78 E7        30.30F VSB 1   WCI  -5
WILLMAR        LGT SNOW   9   5  85 CALM      30.32F VSB 1
$$
MNZ033>034-036-042>043-049>051-058-059-102100-
   Central Minnesota

CITY           SKY/WX    TMP DP  RH WIND       PRES   REMARKS
ST CLOUD       CLOUDY     8   0  69 S3        30.34F
PAYNESVILLE    CLOUDY     8   2  76 S5        30.32F WCI  -1
AITKIN         CLOUDY     9  -2  61 CALM      30.31S
PINE RIVER     CLOUDY     3  -2  78 CALM      30.34S
BRAINERD       CLOUDY     7  -1  70 S3        30.31F
LONG PRAIRIE   CLOUDY     5  -2  72 E5        30.30F WCI  -4
LITTLE FALLS   CLOUDY     7  -4  61 CALM      30.34F
LITCHFIELD     LGT SNOW   9   3  78 CALM      30.32F
BUFFALO        PTSUNNY   10   2  68 CALM      30.36F
MAPLE LAKE     CLOUDY    11   4  72 CALM      30.35F
HUTCHINSON     LGT SNOW  10   5  82 SE3       30.34F
$$
MNZ037-044-045-052-053-102100-
   East Central Minnesota

CITY           SKY/WX    TMP DP  RH WIND       PRES   REMARKS
PRINCETON      CLOUDY    12   1  62 SW3       30.35F
MORA           CLOUDY    10   1  67 CALM      30.36F
CAMBRIDGE      CLOUDY    12   1  62 SW3       30.34S
RUSH CITY      CLOUDY    10   1  67 S5        30.36S WCI   2
MOOSE LAKE     CLOUDY    10   0  61 CALM      30.32F
HINCKLEY       MOCLDY    12   3  67 S5        30.34F WCI   4
CLOQUET        CLOUDY     7  -6  56 CALM      30.31F
MCGREGOR       CLOUDY     9   0  66 CALM      30.33F
$$
MNZ071>073-080-081-089-090-097-098-102100-
   Southwest Minnesota

CITY           SKY/WX    TMP DP  RH WIND       PRES   REMARKS
MONTEVIDEO     LGT SNOW   7   1  78 SE8       30.31F WCI  -6
GRANITE FALLS  LGT SNOW   9   4  82 E5        30.32F WCI   0
CANBY          LGT SNOW   7   3  83 SE10      30.28F WCI  -7
MARSHALL       LGT SNOW   7   3  84 E9        30.28F FOG     WCI  -7
REDWOOD FALLS  LGT SNOW   9   3  77 E6        30.31F WCI  -1
OLIVIA         LGT SNOW  10   5  79 E5        30.31F WCI   2
PIPESTONE      LGT SNOW  10   7  85 SE10      30.17F VSB 1   WCI  -3
WINDOM         LGT SNOW  10   7  85 MISG      30.25F
WORTHINGTON    LGT SNOW  11   7  84 E12       30.21F FOG     WCI  -3
JACKSON        LGT SNOW  10   7  85 E9        30.25F WCI  -2
TRACY          LGT SNOW  10   6  84 E9        30.26F VSB 1   WCI  -3
SLAYTON        LGT SNOW   8   5  86 E8        30.24F WCI  -4
$$
MNZ065>067-074>077-082>085-091>093-102100-
   South Central Minnesota

CITY           SKY/WX    TMP DP  RH WIND       PRES   REMARKS
MANKATO        LGT SNOW  10   5  80 SE6       30.34F VSB 1   WCI   0
NEW ULM        LGT SNOW   9   3  78 E6        30.32F VSB 1   WCI  -1
ST JAMES       LGT SNOW  10   7  85 E6        30.31F WCI   1
FAIRMONT       LGT SNOW  10   7  87 E8        30.29F FOG     WCI  -2
GLENCOE        LGT SNOW  11   7  86 CALM      30.34F
OWATONNA       LGT SNOW  10   7  85 CALM      30.33F VSB 3/4
WASECA         LGT SNOW  12   9  85 E5        30.34F VSB 3/4 WCI   4
ALBERT LEA     LGT SNOW  16  10  79 SE7       30.31F WCI   6
$$
MNZ078>079-086>088-094>096-102100-
   Southeast Minnesota

CITY           SKY/WX    TMP DP  RH WIND       PRES   REMARKS
ROCHESTER      LGT SNOW   9   5  84 SE7       30.33S VSB 3/4 WCI  -2
RED WING       LGT SNOW  12   5  73 CALM      30.36F
STANTON        LGT SNOW  12   6  78 CALM      30.35S VSB 1
DODGE CENTER   SNOW       9   7  92 SE3       30.32F VSB 1/2
WINONA         CLOUDY    16   7  67 CALM      30.39S
AUSTIN         LGT SNOW  10   9  92 SE5       30.32F VSB 3/4 WCI   2
PRESTON        LGT SNOW  10   5  83 CALM      30.34R
$$
ABBREVIATIONS USED IN REMARKS
   TC - TEMPERATURES IN CELSIUS
  WCI - WIND CHILL INDEX
   HX - HEAT INDEX
  VSB - VISIBILITY
$$



USA.gov is the U.S. government's official web portal to all federal, state and local government web resources and services.